This is the latest recevied weather packets stored in our database for station/object 9M2SPN-3. If no packets are shown the sender has not sent any weather packets the latest 10 day(s).
| Time | Temp. | Humidity | Pressure | Rain* | Wind** | Luminosity | Snow |
|---|---|---|---|---|---|---|---|
| 1787986556 | 40.56° C | 46% | 1005.6 hPa | - | - | - | - |
| 1787984755 | 40.56° C | 46% | 1006 hPa | - | - | - | - |
| 1787982954 | 40.56° C | 46% | 1006.6 hPa | - | - | - | - |
| 1787981159 | 40° C | 47% | 1007.2 hPa | - | - | - | - |
| 1787979352 | 40° C | 47% | 1007.8 hPa | - | - | - | - |
| 1787977551 | 40° C | 47% | 1008.2 hPa | - | - | - | - |
| 1787975750 | 40° C | 48% | 1008.3 hPa | - | - | - | - |
| 1787973950 | 39.44° C | 49% | 1008.5 hPa | - | - | - | - |
| 1787972149 | 38.89° C | 50% | 1008.6 hPa | - | - | - | - |
| 1787970348 | 38.33° C | 50% | 1008.6 hPa | - | - | - | - |
| 1787968547 | 37.78° C | 51% | 1008.6 hPa | - | - | - | - |
| 1787966746 | 37.22° C | 54% | 1008.6 hPa | - | - | - | - |
| 1787964945 | 36.11° C | 54% | 1008.5 hPa | - | - | - | - |
| 1787963145 | 35° C | 56% | 1008.1 hPa | - | - | - | - |
| 1787961344 | 34.44° C | 57% | 1008 hPa | - | - | - | - |
| 1787959543 | 33.89° C | 57% | 1007.7 hPa | - | - | - | - |
| 1787957742 | 33.89° C | 56% | 1007.5 hPa | - | - | - | - |
| 1787955942 | 33.89° C | 56% | 1007.1 hPa | - | - | - | - |
| 1787954141 | 33.89° C | 56% | 1006.9 hPa | - | - | - | - |
| 1787952340 | 34.44° C | 55% | 1007 hPa | - | - | - | - |
| 1787950539 | 35° C | 55% | 1006.8 hPa | - | - | - | - |
| 1787948738 | 35° C | 55% | 1006.5 hPa | - | - | - | - |
| 1787946937 | 35° C | 54% | 1006.4 hPa | - | - | - | - |
| 1787945137 | 35.56° C | 54% | 1006.6 hPa | - | - | - | - |
| 1787943336 | 35° C | 56% | 1006.9 hPa | - | - | - | - |
* Rain since midnight (hover to see other rain measurements)
** Current wind speed in m/s (hover to see current wind gust speed)